www.pogodaiklimat.ru

Погода и климат >> Архив погоды >> Канада >> Британская Колумбия >> Ванкувер аэропорт


АРХИВ ПОГОДЫ в Ванкувер аэропорту

Время (UTC), дата Ветер
(напр.,м/с)
 
Видим.   Явления Облачность Т
(С)
Тd
(С)
f
(%)
Тe
(С)
Тes
(С)
Комфортность P
(гПа)
Po
(гПа)
Тmin
(С)
Tmax
(С)
R
(мм)
R24
(мм)
S
(см)
12 12.01 С 1 30 км 3/0
[Ac As Ci fib]
+0.9 +0.7 99 0 0 по сезону 1015.4 1014.9 -0.2 +10.2
15 12.01 С 1 30 км 4/0
[]
+3.1 +2.9 99 +3 +3 по сезону 1014.9 1014.4
18 12.01 Ю 2 45 км 6/0
[Ac As Cc]
+6.2 +3.5 83 +4 +5 по сезону 1016.7 1016.2 -0.2 +6.5
21 12.01 СЗ 2 45 км 9/0
[]
+8.7 +4.8 76 +7 +8 тепло 1016.5 1016.0
00 13.01 С 2 45 км 10/0
[Ac As Ci fib]
+7.5 +4.8 83 +6 +6 по сезону 1016.9 1016.4 -0.2 +11.3
03 13.01 Ю 2 30 км 9/0
[]
+7.5 +5.2 85 +6 +6 тепло 1018.7 1018.2
06 13.01 В 2 30 км 3/0
[Ac As Ci fib]
+3.9 +2.2 89 +2 +2 по сезону 1020.0 1019.5 -0.2 +11.3
09 13.01 штиль 0 30 км 3/0 2000 м
[]
+3.5 +2.8 95 +2 +2 по сезону 1021.3 1020.8
12 13.01 С 1 30 км 5/0
[Ac As Ci fib]
+2.9 +2.5 97 +2 +2 по сезону 1022.0 1021.5 +2.1 +11.3
15 13.01 ЮЗ 1 30 км 6/0
[]
+2.0 +1.8 99 0 0 по сезону 1022.1 1021.6
18 13.01 З 4 45 км 8/0 2000 м
[Ac As Ci fib]
+7.3 +5.7 90 +4 +4 по сезону 1023.3 1022.8 +0.8 +7.3
21 13.01 З 3 45 км 1/1 100 м
[]
+8.3 +6.9 91 +5 +7 по сезону 1021.8 1021.3
00 14.01 СЗ 4 45 км местами туман поземный ясно +5.8 +5.5 98 +2 +2 по сезону 1021.4 1020.9 +0.8 +8.7
03 14.01 СЗ 2 30 км ясно +4.6 +4.5 99 +2 +2 по сезону 1021.0 1020.5
06 14.01 ЮВ 2 800 м туман ясно +2.2 +2.1 99 -1 -1 по сезону 1021.8 1021.3 +0.8 +8.7
09 14.01 ЮВ 1 24 км ясно +2.3 +2.3 100 0 0 по сезону 1021.3 1020.8
12 14.01 С 2 800 м туман ясно -0.3 -0.3 100 -4 -4 прохладно 1020.9 1020.4 -1.8 +8.7
15 14.01 В 2 600 м ясно +0.6 +0.6 100 -3 -3 прохладно 1019.7 1019.2
18 14.01 СЗ 2 400 м туман ясно +2.9 +2.9 100 0 +2 по сезону 1019.5 1019.0 -1.9 +3.4
21 14.01 З 3 400 м ясно +4.1 +4.1 100 0 +3 по сезону 1017.3 1016.8
00 15.01 СЗ 2 200 м туман ясно +3.8 +3.8 100 +1 +1 по сезону 1016.0 1015.5 -1.9 +4.9
03 15.01 СЗ 2 600 м ясно +2.6 +2.6 100 -0 -0 по сезону 1015.0 1014.5
06 15.01 С 1 400 м туман ясно +0.9 +0.9 100 0 0 по сезону 1014.8 1014.3 -1.9 +4.9
09 15.01 С 1 400 м ясно +0.4 +0.4 100 -0 -0 по сезону 1013.9 1013.4
12 15.01 ЮЗ 2 600 м туман ясно +0.3 +0.3 100 -3 -3 прохладно 1013.5 1013.0 -0.5 +4.9
15 15.01 С 1 400 м ясно +0.2 +0.2 100 -1 -1 по сезону 1012.9 1012.4
18 15.01 С 3 400 м туман 1/0
[Ci fib]
+2.0 +2.0 100 -2 -1 прохладно 1013.5 1013.0 -2.0 +2.6
21 15.01 З 3 45 км 6/6 50 м
[]
+5.0 +4.6 97 +2 +3 по сезону 1011.6 1011.1
00 16.01 З 3 45 км {туман} 9/1 50 м
[Sc Cs]
+3.4 +2.9 97 -0 -0 прохладно 1010.6 1010.1 -2.0 +5.3
03 16.01 З 3 24 км ясно +1.9 +1.8 99 -3 -3 холодно 1009.6 1009.1
06 16.01 СЗ 2 24 км местами туман поземный 8/0
[Ac trans]
+1.1 +1.0 99 -2 -2 прохладно 1009.3 1008.8 -2.0 +5.3
09 16.01 С 2 24 км 10/10 50 м
[]
+2.2 +2.2 100 -1 -1 по сезону 1009.4 1008.9
12 16.01 С 2 24 км туман поземный 1/0
[Ac As]
+0.1 -0.1 99 -3 -3 прохладно 1009.0 1008.5 -1.0 +5.3
15 16.01 В 2 24 км ясно -0.3 -0.3 100 -4 -4 холодно 1008.9 1008.4
18 16.01 Ю 2 45 км 8/0
[Ac As]
+2.4 +1.6 94 -1 -0 прохладно 1010.1 1009.6 -1.8 +3.5
21 16.01 З 2 45 км 4/0
[]
+6.7 +3.8 82 +5 +7 по сезону 1008.5 1008.0
00 17.01 З 3 45 км 10/0
[Ac As Ci fib]
+4.3 +3.2 93 +1 +1 по сезону 1006.7 1006.2 -1.8 +7.2
03 17.01 С 1 30 км 6/0
[]
+4.0 +3.3 95 +4 +4 по сезону 1004.4 1003.9
06 17.01 С 3 30 км 3/0
[Ac As Cs]
+2.0 +0.9 92 -2 -2 прохладно 1001.8 1001.3 -1.8 +7.2
09 17.01 СЗ 2 30 км 8/0
[]
+1.3 +0.6 95 -2 -2 прохладно 1000.3 999.8
12 17.01 СВ 1 30 км слаб. дождь 10/9 1000 м
[Sc Ac As]
+3.2 +2.0 92 +2 +2 по сезону 999.9 999.4 +0.1 +7.2 0.0
15 17.01 СВ 4 24 км 10/10 1000 м
[]
+6.1 +3.5 83 +2 +2 по сезону 999.0 998.5
18 17.01 ЮЗ 3 45 км {дождь} 10/4 1500 м
[Sc Ac As Cs]
+6.2 +5.0 92 +3 +4 по сезону 999.0 998.5 +0.1 +6.8 3
21 17.01 В 7 30 км 10/10 1500 м
[]
+9.0 +5.4 78 +5 +5 по сезону 998.3 997.8
00 18.01 В 7 30 км осадки на расстоянии 10/6 1000 м
[Sc As op]
+9.6 +5.5 76 +6 +6 по сезону 999.7 999.2 +0.1 +10.4 0.0
03 18.01 В 7 30 км 10/10 600 м
[]
+9.4 +5.1 74 +6 +6 тепло 1002.3 1001.8
06 18.01 ЮВ 6 24 км слаб. дождь 10/10 300 м
[Sc]
+8.6 +7.8 95 +5 +5 по сезону 1005.5 1005.0 +0.1 +10.4 9 31
09 18.01 ЮВ 7 24 км 10/10 1000 м
[]
+9.1 +7.0 87 +5 +5 тепло 1009.4 1008.9
12 18.01 ЮВ 6 30 км {дождь} 9/1 1000 м
[Sc Ac As]
+8.8 +6.1 83 +5 +5 тепло 1013.0 1012.5 +8.1 +10.4 1
15 18.01 ЮВ 4 24 км 10/10 1000 м
[]
+8.0 +6.0 87 +5 +5 тепло 1016.1 1015.6
18 18.01 В 7 24 км {дождь} 10/3 100 м
[Sc Ac As Cs]
+7.7 +6.5 92 +3 +3 по сезону 1018.4 1017.9 +6.3 +9.2 0.8
21 18.01 ЮВ 8 24 км 10/10 600 м
[]
+9.4 +5.8 78 +5 +5 по сезону 1017.6 1017.1
00 19.01 В 6 24 км 10/8 1000 м
[Sc As op]
+9.2 +5.4 77 +6 +6 по сезону 1014.8 1014.3 +7.3 +9.8
03 19.01 В 5 24 км 10/10 1000 м
[]
+7.6 +6.0 90 +4 +4 по сезону 1011.7 1011.2
06 19.01 В 8 19 км слаб. дождь 10/9 600 м
[Sc As op]
+6.9 +5.5 91 +2 +2 по сезону 1007.5 1007.0 +6.8 +9.8 6 31
09 19.01 В 8 24 км 10/10 300 м
[]
+6.8 +6.1 95 +2 +2 по сезону 1008.4 1007.9

 

Местоположение метеостанции Ванкувер аэропорт (Британская Колумбия, Канада): широта 49.20 долгота -123.10 высота над уровнем моря 4 м.

В архиве по умолчанию представлена погода в Ванкувер аэропорту за последнюю неделю. Архивные данные за месяц целиком и за предыдущие месяцы, начиная с января 2011 года, Вы можете получить, выбрав интересующий диапазон дат из раскрывающегося списка и нажав кнопку "Ввод!".


*Определитесь, кто Вы:
робот инопланетянин человек

Внимание! Время в таблицах - всемирное. Для получения местного времени необходимо прибавить поправку, которая равна -8 ч.

Смотрите также архив погоды в соседних городах и на ближайших метеорологических станциях:

Погода в Ричмонде (Британская Колумбия, Канада) (3 км)
Погода в Ванкувер Хиллкрест (Британская Колумбия, Канада) (3 км)
Погода в Ванкувере Си Айленд (Британская Колумбия, Канада) (7 км)
Погода в Ванкувере (Британская Колумбия, Канада) (11 км)
Погода на Западе Ванкувер (Британская Колумбия, Канада) (14 км)
Погода в Пойнт Аткинсон (Британская Колумбия, Канада) (17 км)
Погода на Сэнд Хеадс (Британская Колумбия, Канада) (18 км)
Погода в Слейв Лейк (Альберта, Канада) (21 км)
Погода в Форт-МакМеррее 2 (Альберта, Канада) (23 км)
Погода на Пэм Рок (Британская Колумбия, Канада) (32 км)

Пояснения к столбцам:

Ветер - указаны скорость ветра в м/с - средняя за 10 мин, порывы в срок и между сроками (в фигурных скобках) и направление, откуда дует ветер: С - северный, СВ - северо-восточный, В - восточный, ЮВ - юго-восточный, Ю - южный, ЮЗ - юго-западный, З - западный, СЗ - северо-западный.
Видимость - горизонтальная дальность видимости в метрах или километрах. При видимости от 1 до 10 км при отсутствии осадков обычно наблюдается дымка, при ухудшении видимости до 1 км и менее - туман. В сухую погоду видимость может ухудшаться дымом, пылью или мглою.
Явления - указаны атмосферные явления, наблюдавшиеся в срок или в последний час перед сроком; фигурными скобками обозначены явления, наблюдавшиеся между сроками (за 1-3 часа до срока); квадратными скобками обозначены град или гололедные отложения с указанием их диаметра в мм.
Облачность - указаны через наклонную черту общая и нижняя облачность в баллах и высота нижней границы облаков в метрах; квадратными скобками обозначены формы облаков: Ci - перистые, Cs - перисто-слоистые, Cc - перисто-кучевые, Ac - высококучевые, As - высокослоистые, Sc - слоисто-кучевые, Ns - слоисто-дождевые, Cu - кучевые, Cb - кучево-дождевые. Подробнее классификацию облаков см. в Атласе облаков (PDF).
T - Температура воздуха - температура, измеренная на высоте 2 м над землей.
Td - Температура точки росы - температура, при понижении до которой содержащийся в воздухе водяной пар достигнет насыщения.
f - Относительная влажность воздуха - влажноcть воздуха, измеренная на высоте 2 м над землей.
Te - Эффективная температура - температура, которую ощущает одетый по сезону человек в тени. Характеристика душности погоды. При расчете учитывается влияние влажности воздуха и скорости ветра на теплоощущения человека.
Tes - Эффективная температура на солнце - температура, которую ощущает человек, с поправкой на солнечный нагрев. Характеристика знойности погоды. Зависит от высоты солнца над горизонтом, облачности и скорости ветра. Ночью, в пасмурную погоду, а также при ветре 12 м/с и более поправка равна нулю.
P - Атмосферное давление - приведенное к уровню моря атмосферное давление.
Po - Атмосферное давление - измеренное на уровне метеостанции атмосферное давление.
Tmin - Минимальная температура - минимум температуры воздуха на высоте 2 м над землей.
Tmax - Максимальная температура - максимум температуры воздуха на высоте 2 м над землей.
R - Количество осадков - Количество выпавших осадков за период времени, мм. При наведении курсора мыши на число - период времени, за который выпало указанное количество осадков.
R24 - Количество осадков - Количество выпавших осадков за 24 часа, мм.
S - Снежный покров - Высота снежного покрова, см. При наведении курсора мыши на число - состояние снежного покрова и степень покрытия местности в баллах.